CAPE
1230 1237 1329 1421 1306 1193 1486 1127 989 798 750 1003 1103 1595 2023 2359 2094 2253 2648 2233 1797 1271 1261 1210 1772 1867 1830 1843 1701 1472 1230 880 678 548 418 296 227 183
1273 1349 1131 1086 1122 1223 1331 1422 1441 1490 1115 1329 1341 1729 2219 2501 2016 2452 2929 2255 2466 1606 1448 1198 1755 2051 2104 2152 2009 1605 1157 783 510 236 94 28 8 6
1245 1258 1445 1639 1208 1312 1656 1792 1699 1503 1443 1420 1854 2027 2316 2532 2264 2584 2649 2526 1730 2007 1688 1275 1530 1954 2135 2112 1663 992 609 111 0 0 0 0 0 0
1306 1370 1203 1524 1810 1927 1769 2002 1884 2102 1736 1761 1910 1969 2303 2400 2561 2735 2362 1859 2405 1943 1695 1410 1574 1921 2024 1740 949 198 0 0 0 0 0 0 0 0
1405 1461 1485 1757 1759 1702 1983 2010 1955 2241 2306 2112 1897 2045 2179 2151 2266 2093 2504 2654 2076 1725 1484 1551 1880 1902 1570 572 0 0 0 0 0 0 0 0 0 0
1615 1575 1579 1727 1823 2113 1982 2141 2121 2056 1993 2188 1811 1857 1865 2165 2403 2096 1754 1839 2127 2193 1496 1872 2374 1358 301 0 0 0 0 0 0 0 0 0 0 0
1782 1676 1483 1478 1395 1499 1560 1727 2060 2193 1954 1777 1697 1653 1617 1582 1519 1908 1872 2061 2000 2551 1758 2175 2762 3278 76 0 0 0 0 0 0 0 0 0 0 0
1539 1660 1621 1114 850 724 749 864 1211 1835 2044 1853 1496 1381 1837 1967 1791 1811 1852 1989 1465 1791 2190 2199 2773 3135 1328 268 0 0 0 0 0 0 0 0 0 0
1568 1628 1625 1371 1297 1539 1114 652 585 583 900 1417 1521 1529 1506 1666 2060 2061 1985 2259 1753 1495 1858 2313 2882 2918 805 0 0 0 0 0 0 0 0 0 0 0
1388 1459 1502 1565 1701 1466 1536 1587 1583 1575 1300 945 1238 1570 1924 2175 2341 2192 2338 2104 1893 1766 2299 2518 2465 2938 710 0 0 0 0 0 0 0 0 0 0 0
1053 1173 1349 1236 1107 585 1003 1373 1530 1602 1324 1300 1219 1366 1205 1055 1243 1624 1505 1269 906 833 2174 2870 2260 2889 1047 239 0 0 0 0 0 0 0 0 0 0
537 897 624 642 695 226 204 777 1218 1049 1155 1143 1526 1037 650 821 435 889 1387 1285 979 1106 1719 2400 2053 2660 2286 1027 9 0 0 0 0 0 0 0 0 0
253 140 151 138 0 6 5 598 737 977 827 1128 1168 1329 1469 1646 1734 1189 1149 1367 1136 1108 1621 2493 1991 2741 2279 1681 774 88 5 1 0 0 0 0 0 0
622 546 448 83 0 0 0 20 240 477 696 464 466 893 1029 1085 1213 1459 1917 1982 1551 1457 1762 2275 2164 2346 2352 2017 1616 712 139 0 0 0 0 0 0 0
540 719 522 253 0 0 0 19 8 153 460 462 403 511 767 1010 1291 1438 1523 1669 1930 2057 1847 2440 2231 2415 2257 1898 2020 1490 302 19 0 0 0 0 0 0
38 325 440 287 206 329 289 24 73 443 480 439 358 441 806 1081 1122 1188 1128 1392 1660 1768 1951 2134 1993 2192 2043 1811 1640 1512 536 170 0 0 0 0 0 0
90 256 536 625 651 724 735 803 843 655 536 654 691 698 877 1042 1130 1314 1422 1511 1521 1528 1457 2262 1152 1183 1216 1326 1378 1072 843 163 10 0 0 0 0 0
203 751 891 849 852 793 893 946 868 812 783 619 654 691 782 972 1185 1438 1571 1552 1546 1607 1492 2014 1104 625 386 350 422 650 301 101 4 0 0 0 0 0
575 918 960 1010 870 847 1020 1074 992 889 1069 763 643 706 850 986 1201 1413 1609 1744 1693 1662 1740 2140 1263 570 737 768 353 3 168 32 0 0 0 0 0 0
727 1010 1173 949 1045 1097 1170 1118 1033 1310 1328 1252 869 816 911 1030 1181 1455 1628 1731 1602 1762 1719 974 691 494 556 756 662 144 0 0 0 0 0 0 0 0
413 793 1032 1246 1234 1328 1409 1372 1225 978 1015 1400 1294 1175 1236 1289 1372 1623 1748 1448 1628 1424 1020 889 521 189 278 60 45 26 0 0 0 0 1 2 4 3
1448 1095 921 1267 1247 1336 1491 1444 1379 1120 1057 1176 1293 1246 1197 1227 1303 1359 1370 939 771 755 721 762 105 36 39 54 81 28 0 0 0 0 0 0 2 1
1546 1599 1447 1215 1330 1516 1533 1425 1262 1192 1133 1093 1216 1249 1162 1152 1056 748 531 508 514 461 373 153 45 11 11 2 0 0 0 0 0 0 0 0 0 0
CIN
-20 -25 -21 -21 -27 -35 -32 -40 -27 -31 -39 -51 -55 -61 -54 -47 -91 -84 -69 -133 -193 -279 -294 -329 -254 -221 -224 -202 -217 -243 -272 -326 -364 -393 -417 -465 -485 -476
-13 -22 -31 -27 -32 -31 -28 -35 -38 -21 -30 -56 -59 -75 -56 -40 -84 -87 -52 -136 -111 -228 -275 -339 -256 -193 -170 -147 -155 -198 -265 -313 -387 -504 -631 -422 -452 -435
-26 -29 -28 -31 -20 -22 -22 -23 -26 -38 -29 -34 -62 -60 -62 -59 -83 -73 -60 -85 -148 -149 -220 -308 -275 -212 -173 -155 -218 -343 -414 -533 -0 -0 -0 -0 -0 -0
-25 -24 -32 -18 -20 -19 -17 -19 -16 -14 -25 -41 -43 -51 -58 -72 -76 -65 -83 -124 -86 -124 -208 -260 -263 -205 -195 -228 -387 -611 -0 -0 -0 -0 -0 -0 -0 -0
-20 -22 -22 -11 -13 -5 -9 -1 -1 -3 -4 -18 -45 -45 -61 -71 -79 -82 -75 -76 -102 -134 -183 -211 -199 -219 -274 -501 -0 -0 -0 -0 -0 -0 -0 -0 -0 -0
-23 -21 -18 -16 -13 -7 -5 -7 -3 -5 -0 -4 -39 -43 -55 -54 -48 -65 -107 -105 -99 -88 -128 -143 -126 -319 -653 -0 -0 -0 -0 -0 -0 -0 -0 -0 -0 -0
-27 -27 -28 -27 -36 -28 -9 -6 -2 -1 -1 -11 -30 -44 -55 -59 -62 -53 -77 -65 -109 -62 -111 -56 -27 -9 -526 -0 -0 -0 -0 -0 -0 -0 -0 -0 -0 -0
-29 -31 -32 -46 -73 -95 -93 -92 -46 -5 -1 -1 -29 -57 -40 -32 -34 -55 -61 -44 -89 -78 -78 -62 -11 -3 -209 -525 -0 -0 -0 -0 -0 -0 -0 -0 -0 -0
-37 -32 -26 -19 -43 -27 -67 -121 -152 -160 -111 -52 -54 -65 -59 -47 -13 -33 -32 -20 -54 -69 -51 -43 -3 -5 -320 -0 -0 -0 -0 -0 -0 -0 -0 -0 -0 -0
-42 -38 -37 -27 -30 -31 -25 -20 -27 -37 -91 -129 -106 -79 -40 -5 -2 -1 -3 -22 -46 -51 -7 -11 -5 -2 -329 -0 -0 -0 -0 -0 -0 -0 -0 -0 -0 -0
-79 -79 -61 -53 -61 -106 -45 -30 -30 -42 -55 -92 -101 -91 -93 -98 -57 -25 -43 -50 -103 -100 -11 -0 -3 -0 -204 -455 -0 -0 -0 -0 -0 -0 -0 -0 -0 -0
-155 -132 -197 -170 -152 -210 -177 -64 -41 -94 -56 -43 -49 -125 -193 -137 -219 -134 -40 -39 -60 -57 -30 -0 -5 -1 -4 -207 -434 -0 -0 -0 -0 -0 -0 -0 -0 -0
-239 -279 -295 -365 -0 -240 -126 -111 -134 -87 -71 -47 -51 -43 -34 -23 -26 -98 -93 -48 -52 -60 -10 -1 -10 -0 -0 -50 -270 -635 -250 -219 -0 -0 -0 -0 -0 -0
-165 -169 -215 -360 -0 -0 -0 -483 -249 -171 -113 -149 -142 -90 -72 -64 -49 -33 -26 -35 -49 -51 -10 -14 -1 -0 -0 -4 -24 -199 -456 -0 -0 -0 -0 -0 -0 -0
-209 -176 -205 -295 -0 -0 -302 -518 -563 -302 -204 -199 -208 -170 -105 -59 -58 -58 -62 -54 -38 -34 -54 -5 -1 -0 -0 -5 -0 -23 -204 -387 -0 -0 -0 -0 -0 -0
-389 -257 -218 -261 -305 -276 -284 -568 -414 -206 -202 -215 -228 -184 -111 -77 -82 -81 -59 -37 -14 -32 -32 -25 -23 -0 -0 -6 -6 -0 -75 -174 -0 -0 -0 -0 -0 -0
-279 -215 -171 -176 -199 -183 -168 -137 -115 -148 -178 -161 -143 -135 -102 -85 -74 -64 -44 -39 -18 -20 -7 -0 -67 -58 -36 -19 -7 -7 -10 -129 -291 -0 -0 -0 -0 -0
-206 -120 -136 -168 -182 -175 -152 -126 -128 -124 -128 -143 -129 -112 -98 -74 -59 -39 -28 -21 -10 -8 -17 -1 -43 -97 -158 -167 -138 -16 -45 -173 -188 -0 -0 -0 -0 -0
-155 -138 -160 -169 -222 -197 -147 -133 -131 -115 -96 -123 -126 -107 -92 -80 -58 -39 -10 -5 -6 -5 -1 -0 -24 -81 -41 -45 -118 -9 -104 -250 -0 -0 -0 -0 -0 -0
-156 -144 -160 -210 -190 -181 -133 -131 -133 -76 -67 -84 -118 -116 -100 -83 -53 -34 -28 -8 -0 -0 -0 -42 -74 -87 -42 -22 -0 -132 -0 -0 -0 -0 -0 -0 -0 -0
-253 -186 -170 -153 -155 -136 -115 -98 -87 -110 -108 -62 -75 -81 -74 -72 -63 -33 -13 -27 -6 -1 -8 -23 -81 -137 -55 -204 -181 -185 -8 -0 -0 -0 -0 -1 -0 -0
-45 -127 -156 -126 -140 -118 -97 -87 -58 -93 -106 -88 -79 -89 -92 -74 -63 -48 -39 -53 -64 -46 -34 -5 -204 -247 -203 -187 -80 -112 -0 -0 -0 -0 -0 -0 -1 -0
-54 -55 -79 -99 -91 -56 -63 -66 -77 -62 -72 -85 -64 -59 -64 -59 -59 -82 -107 -100 -84 -74 -82 -153 -265 -294 -229 -0 -0 -0 -0 -0 -0 -0 -0 -0 -0 -0
Wind_Speed
23 22 21 19 19 19 18 17 17 19 18 17 18 17 18 19 20 18 16 13 5 13 8 7 11 15 15 14 13 13 12 11 11 10 9 8 7 6
24 24 24 23 22 22 21 20 20 20 21 20 20 20 21 21 23 23 24 3 10 15 18 9 10 15 19 17 17 18 18 18 17 16 13 13 13 12
24 25 26 25 25 24 23 23 24 23 24 24 23 23 23 23 24 27 28 28 17 9 23 8 14 13 19 20 22 23 24 24 23 22 20 20 19 19
25 25 26 26 27 26 26 27 26 25 27 27 26 26 26 27 27 28 29 30 31 28 26 30 24 16 20 21 22 24 26 26 25 24 24 23 21 21
27 26 25 24 26 26 26 27 26 26 26 29 29 28 28 29 30 30 30 30 28 32 27 22 28 23 21 23 24 25 25 26 27 27 28 26 23 23
22 24 28 22 21 22 24 27 28 29 28 30 30 30 29 29 30 31 32 31 32 31 30 23 24 25 24 23 22 23 24 25 26 27 28 28 25 25
21 19 18 18 13 10 22 24 25 27 28 30 31 31 31 30 32 32 31 29 27 22 27 23 22 21 19 20 19 20 22 23 25 28 30 29 28 26
16 20 19 15 17 19 19 18 29 27 29 30 31 31 30 30 29 30 33 30 27 23 27 24 21 18 17 16 16 18 19 21 25 27 30 29 27 27
10 7 20 19 12 12 12 14 19 15 10 24 32 30 32 28 27 26 28 29 28 29 24 23 20 17 16 17 14 16 17 19 22 24 27 32 32 29
15 13 11 10 8 7 8 12 11 8 9 12 10 13 17 22 21 23 29 30 29 27 19 20 22 18 15 16 13 14 15 18 20 23 27 32 33 30
20 18 15 14 13 13 11 15 15 15 10 11 15 12 11 9 9 17 14 18 31 28 20 18 24 20 15 14 14 12 13 14 18 22 26 29 33 29
22 21 18 19 17 16 16 19 14 15 24 21 11 9 10 11 9 9 11 8 9 31 20 16 24 21 19 17 13 12 11 10 13 19 23 28 32 31
24 22 20 19 21 19 18 18 16 25 25 20 15 13 14 15 15 13 9 9 11 11 20 18 25 23 20 21 18 12 10 12 13 15 18 23 27 29
28 27 27 23 20 20 20 20 18 25 26 22 20 19 21 21 20 15 13 12 12 13 18 17 23 23 19 21 22 18 13 12 13 16 18 21 21 25
27 30 32 28 25 23 20 19 19 21 21 20 20 21 21 22 23 21 19 17 14 14 15 16 19 22 20 20 22 19 17 16 15 16 18 20 24 26
25 29 32 31 28 26 24 22 21 21 21 21 21 22 23 22 21 21 22 22 22 21 17 17 18 19 21 21 20 21 19 19 16 15 18 21 22 22
26 27 27 25 24 25 25 25 24 24 24 24 24 24 23 22 22 22 21 22 22 25 25 19 21 22 23 22 20 19 19 19 19 20 21 24 22 22
23 27 26 24 24 23 23 23 23 23 22 23 23 22 22 23 24 23 23 23 24 26 26 23 21 22 24 21 17 22 21 20 21 22 23 27 27 22
22 25 26 24 23 23 23 22 21 21 21 21 22 22 22 22 23 24 24 24 25 25 23 22 19 20 23 25 22 15 18 21 22 23 23 26 27 24
21 24 25 24 23 23 24 25 25 23 21 21 21 21 21 22 23 23 23 23 23 24 24 21 20 20 20 22 22 20 15 20 21 23 24 24 25 25
23 25 26 26 25 25 25 25 23 22 22 21 20 20 21 22 23 23 23 24 24 24 24 24 24 21 19 20 22 23 21 17 20 25 25 24 26 26
31 30 30 28 27 26 26 26 25 22 20 20 20 19 19 19 19 20 20 22 24 26 27 26 20 19 19 22 25 24 23 21 21 23 22 22 25 28
33 33 32 32 30 27 25 24 25 27 25 24 23 22 22 20 19 19 19 18 16 16 16 19 20 22 25 24 25 25 24 24 22 21 21 22 26 26
Wind_Direction
228 234 235 238 236 238 242 244 240 222 227 248 234 264 274 284 291 286 279 269 225 279 286 311 45 41 40 41 44 47 49 53 60 62 60 51 41 35
230 232 233 237 239 242 242 253 254 248 227 256 252 257 275 276 293 294 297 189 258 279 293 292 48 41 38 42 42 42 43 48 55 56 57 55 49 43
237 236 235 239 239 246 253 254 254 257 241 257 264 269 272 273 281 303 317 325 274 266 296 288 44 40 36 38 39 41 41 41 42 46 51 46 45 42
234 245 240 244 244 252 252 253 256 265 259 256 269 274 277 283 286 294 311 323 327 343 297 349 13 36 34 36 39 40 41 39 37 38 39 39 41 39
222 241 252 259 257 259 260 261 265 269 274 269 268 285 290 295 295 304 314 324 343 332 357 9 354 20 28 31 37 38 38 33 31 28 26 32 36 35
189 197 226 275 278 277 275 269 267 268 274 275 278 285 294 303 305 307 314 321 320 333 343 2 4 8 19 28 34 36 38 35 32 24 24 26 32 32
187 185 183 184 179 297 285 283 283 281 281 281 283 288 295 302 302 306 316 328 337 351 348 358 1 7 21 23 31 33 35 34 30 22 17 21 26 29
189 194 193 188 193 199 200 203 279 287 287 288 290 295 302 308 314 315 310 323 333 344 341 350 356 8 16 21 29 32 32 32 26 22 14 17 24 26
276 249 202 201 196 196 198 204 211 214 268 295 291 297 299 308 315 320 318 318 324 327 336 342 350 359 8 12 24 26 28 28 26 22 16 6 9 20
270 269 264 268 235 224 217 209 214 228 287 292 278 294 308 313 317 318 313 313 317 323 336 338 342 346 358 3 12 17 22 21 23 18 13 1 0 13
267 265 262 263 266 231 240 222 222 223 292 235 231 244 247 259 295 319 319 324 311 318 329 332 334 341 349 356 2 6 11 18 15 14 11 6 356 8
265 265 247 235 264 264 270 285 238 281 299 304 299 294 249 244 272 287 307 283 301 308 322 328 328 337 341 349 357 359 359 6 11 11 10 5 354 355
268 266 258 245 236 256 253 271 269 292 297 300 298 297 303 306 306 304 284 274 299 297 316 320 320 326 329 334 342 347 353 360 3 7 9 7 2 357
270 273 274 267 258 256 254 248 255 286 291 292 293 295 299 301 303 302 296 292 290 288 309 311 315 319 321 326 333 342 346 350 355 358 2 2 4 360
270 274 275 275 272 271 260 263 267 280 282 283 285 290 295 300 303 304 305 303 295 296 295 295 304 312 314 318 325 332 339 342 346 350 352 356 355 352
266 273 274 275 276 277 279 277 273 275 276 278 283 289 294 296 298 302 302 305 304 306 301 296 298 303 307 311 314 319 327 334 342 346 347 344 347 352
270 273 274 275 275 277 278 278 279 279 276 278 282 286 288 291 293 297 298 299 298 302 303 301 303 303 306 307 310 313 318 325 330 333 336 334 336 339
267 270 273 273 275 276 278 280 279 276 276 279 279 281 283 287 291 294 295 294 296 298 298 298 301 304 307 306 299 307 315 319 323 324 326 324 324 330
267 270 271 273 274 276 279 281 284 285 285 281 281 282 284 286 287 289 292 293 294 294 293 294 292 298 298 300 308 299 305 314 319 321 321 319 317 321
264 270 273 273 275 277 279 282 284 287 287 285 285 284 283 285 287 287 288 287 292 292 290 290 289 288 288 297 301 310 302 311 316 318 319 318 314 316
261 267 272 275 276 277 280 282 283 282 283 283 285 284 286 286 285 285 287 289 291 292 287 287 289 289 292 302 301 304 311 308 314 313 315 315 312 312
269 271 272 274 276 277 278 280 283 281 277 277 281 283 285 285 284 285 286 290 289 288 288 292 294 292 289 294 299 303 309 314 313 309 309 312 312 308
269 271 274 275 277 278 279 279 279 281 280 280 282 284 287 284 285 289 290 290 289 289 285 286 292 291 294 298 299 303 307 309 310 309 310 310 307 303